Location: Ceska republika
(50.0000°N, 15.0000°E)
Time: 09:20:11
(UTC+02:00)

ISS - Pass Details

Date: 10 October 2017
Orbit: 401 x 408 km, 51.6° (Epoch: 19 October)

Event Time Altitude Azimuth Distance (km) Brightness Sun altitude
Rises 19:29:50 0° 287° (WNW) 2,327 1.8 -12.2°
Reaches altitude 10° 19:31:55 10° 285° (WNW) 1,467 0.4 -12.5°
Maximum altitude 19:35:11 72° 201° (SSW) 431 -3.7 -13.0°
Enters shadow 19:37:04 23° 120° (ESE) 914 -2.6 -13.3°
